• In Denmark
  • List of Countries
  • For 7 days
  • Water Temperature
  • Satellite Maps
  • Weather Map
  • Weather Widgets
  • user-avatar
    Login

    Hourly Weather Gruszczyce

    Today, 25 June, Monday

    Time Temperature Precipitation Wind Pressure Humidity
    00:00 +10°C° 0 mm 2 mps 748 mmHg 94%
    01:00 +10°C° 0 mm 1 mps 748 mmHg 95%
    02:00 +10°C° 0 mm 1 mps 748 mmHg 95%
    03:00 +9°C° 0 mm 2 mps 749 mmHg 95%
    04:00 +9°C° 0 mm 2 mps 749 mmHg 95%
    05:00 +10°C° 0 mm 2 mps 749 mmHg 91%
    06:00 +13°C° 0 mm 2 mps 749 mmHg 88%
    07:00 +13°C° 0 mm 3 mps 749 mmHg 83%
    08:00 +14°C° 0 mm 3 mps 749 mmHg 77%
    09:00 +17°C° 0 mm 4 mps 749 mmHg 70%
    10:00 +18°C° 0 mm 4 mps 749 mmHg 64%
    11:00 +19°C° 0.2 mm 4 mps 749 mmHg 63%
    12:00 +19°C° 0.2 mm 4 mps 750 mmHg 62%
    13:00 +20°C° 0.2 mm 4 mps 750 mmHg 61%
    14:00 +19°C° 0.8 mm 4 mps 749 mmHg 65%
    15:00 +19°C° 0.8 mm 3 mps 749 mmHg 69%
    16:00 +18°C° 0.8 mm 3 mps 749 mmHg 73%
    17:00 +17°C° 0.4 mm 2 mps 749 mmHg 77%
    18:00 +17°C° 0.4 mm 2 mps 749 mmHg 81%
    19:00 +16°C° 0.4 mm 2 mps 749 mmHg 85%
    20:00 +15°C° 0 mm 2 mps 749 mmHg 87%
    21:00 +15°C° 0 mm 2 mps 750 mmHg 88%
    22:00 +14°C° 0 mm 2 mps 750 mmHg 90%
    23:00 +14°C° 0.1 mm 2 mps 750 mmHg 90%

    Tomorrow, 26 June, Tuesday

    Time Temperature Precipitation Wind Pressure Humidity
    00:00 +13°C° 0.1 mm 2 mps 750 mmHg 91%
    01:00 +13°C° 0.1 mm 2 mps 750 mmHg 91%
    02:00 +13°C° 0 mm 2 mps 750 mmHg 91%
    03:00 +13°C° 0 mm 2 mps 750 mmHg 91%
    04:00 +13°C° 0 mm 2 mps 749 mmHg 91%
    05:00 +13°C° 0.2 mm 2 mps 750 mmHg 90%
    06:00 +14°C° 0.2 mm 2 mps 750 mmHg 89%
    07:00 +15°C° 0.2 mm 2 mps 750 mmHg 88%
    08:00 +16°C° 0.9 mm 2 mps 750 mmHg 84%
    09:00 +17°C° 0.9 mm 3 mps 750 mmHg 80%
    10:00 +18°C° 0.9 mm 3 mps 750 mmHg 76%
    11:00 +19°C° 0.8 mm 3 mps 749 mmHg 72%
    12:00 +20°C° 0.8 mm 3 mps 749 mmHg 68%
    13:00 +21°C° 0.8 mm 4 mps 749 mmHg 64%
    14:00 +21°C° 0.5 mm 4 mps 749 mmHg 64%
    15:00 +21°C° 0.5 mm 4 mps 749 mmHg 64%
    16:00 +21°C° 0.5 mm 3 mps 749 mmHg 64%
    17:00 +20°C° 0.3 mm 3 mps 749 mmHg 69%
    18:00 +19°C° 0.3 mm 3 mps 749 mmHg 74%
    19:00 +18°C° 0.3 mm 3 mps 749 mmHg 80%
    20:00 +17°C° 0 mm 3 mps 750 mmHg 83%
    21:00 +14°C° 0 mm 3 mps 750 mmHg 87%
    22:00 +13°C° 0 mm 3 mps 750 mmHg 91%
    23:00 +13°C° 0 mm 3 mps 750 mmHg 92%

    Day after tomorrow, 27 June, Wednesday

    Time Temperature Precipitation Wind Pressure Humidity
    00:00 +12°C° 0 mm 3 mps 751 mmHg 94%
    01:00 +12°C° 0 mm 3 mps 751 mmHg 95%
    02:00 +12°C° 0 mm 3 mps 751 mmHg 96%
    03:00 +11°C° 0 mm 3 mps 751 mmHg 96%
    04:00 +11°C° 0 mm 3 mps 751 mmHg 96%
    05:00 +12°C° 0 mm 3 mps 751 mmHg 92%
    06:00 +14°C° 0 mm 3 mps 752 mmHg 88%
    07:00 +16°C° 0 mm 3 mps 752 mmHg 84%
    08:00 +18°C° 0 mm 4 mps 752 mmHg 77%
    09:00 +20°C° 0 mm 4 mps 752 mmHg 71%
    10:00 +21°C° 0 mm 4 mps 752 mmHg 64%
    11:00 +22°C° 0.2 mm 4 mps 752 mmHg 63%
    12:00 +23°C° 0.2 mm 5 mps 752 mmHg 62%
    13:00 +23°C° 0.2 mm 5 mps 752 mmHg 60%
    14:00 +23°C° 0.4 mm 5 mps 752 mmHg 63%
    15:00 +23°C° 0.4 mm 4 mps 751 mmHg 66%
    16:00 +22°C° 0.4 mm 4 mps 751 mmHg 69%
    17:00 +22°C° 0.2 mm 4 mps 751 mmHg 72%
    18:00 +21°C° 0.2 mm 4 mps 751 mmHg 75%
    19:00 +21°C° 0.2 mm 4 mps 751 mmHg 78%
    20:00 +20°C° 0 mm 4 mps 751 mmHg 80%
    21:00 +19°C° 0 mm 5 mps 751 mmHg 82%
    22:00 +17°C° 0 mm 5 mps 751 mmHg 84%
    23:00 +17°C° 0 mm 5 mps 751 mmHg 85%

    28 June, Thursday

    Time Temperature Precipitation Wind Pressure Humidity
    00:00 +17°C° 0 mm 5 mps 751 mmHg 86%
    01:00 +16°C° 0 mm 5 mps 751 mmHg 86%
    02:00 +16°C° 0 mm 6 mps 750 mmHg 86%
    03:00 +16°C° 0 mm 6 mps 750 mmHg 86%
    04:00 +16°C° 0 mm 6 mps 749 mmHg 86%
    05:00 +17°C° 0 mm 7 mps 749 mmHg 83%
    06:00 +18°C° 0 mm 7 mps 749 mmHg 80%
    07:00 +20°C° 0 mm 8 mps 749 mmHg 77%
    08:00 +22°C° 0 mm 8 mps 749 mmHg 73%
    09:00 +23°C° 0 mm 8 mps 749 mmHg 68%
    10:00 +26°C° 0 mm 8 mps 749 mmHg 64%
    11:00 +26°C° 0 mm 8 mps 748 mmHg 63%
    12:00 +26°C° 0 mm 8 mps 748 mmHg 61%
    13:00 +27°C° 0 mm 7 mps 748 mmHg 60%
    14:00 +26°C° 0.7 mm 7 mps 748 mmHg 65%
    15:00 +26°C° 0.7 mm 6 mps 748 mmHg 69%
    16:00 +24°C° 0.7 mm 6 mps 747 mmHg 74%
    17:00 +25°C° 0.6 mm 5 mps 747 mmHg 78%
    18:00 +23°C° 0.6 mm 5 mps 747 mmHg 81%
    19:00 +22°C° 0.6 mm 4 mps 747 mmHg 85%
    20:00 +22°C° 0.6 mm 4 mps 747 mmHg 87%
    21:00 +21°C° 0.6 mm 4 mps 747 mmHg 88%
    22:00 +21°C° 0.6 mm 4 mps 747 mmHg 90%
    23:00 +21°C° 0.2 mm 4 mps 747 mmHg 91%

    29 June, Friday

    Time Temperature Precipitation Wind Pressure Humidity
    00:00 +20°C° 0.2 mm 4 mps 747 mmHg 92%
    01:00 +20°C° 0.2 mm 4 mps 747 mmHg 93%
    02:00 +20°C° 0.3 mm 4 mps 747 mmHg 94%
    03:00 +19°C° 0.3 mm 4 mps 747 mmHg 94%
    04:00 +19°C° 0.3 mm 4 mps 747 mmHg 95%
    05:00 +20°C° 0 mm 5 mps 747 mmHg 93%
    06:00 +21°C° 0 mm 5 mps 747 mmHg 90%
    07:00 +22°C° 0 mm 5 mps 747 mmHg 87%
    08:00 +23°C° 0 mm 5 mps 747 mmHg 81%
    09:00 +26°C° 0 mm 5 mps 747 mmHg 75%
    10:00 +27°C° 0 mm 5 mps 747 mmHg 68%
    11:00 +28°C° 0.1 mm 5 mps 747 mmHg 65%
    12:00 +29°C° 0.1 mm 5 mps 747 mmHg 62%
    13:00 +30°C° 0.1 mm 5 mps 747 mmHg 59%
    14:00 +30°C° 0.9 mm 5 mps 746 mmHg 61%
    15:00 +30°C° 0.9 mm 5 mps 746 mmHg 63%
    16:00 +29°C° 0.9 mm 5 mps 746 mmHg 64%
    17:00 +28°C° 0.4 mm 5 mps 746 mmHg 68%
    18:00 +27°C° 0.4 mm 5 mps 746 mmHg 72%
    19:00 +26°C° 0.4 mm 5 mps 747 mmHg 76%
    20:00 +25°C° 0 mm 5 mps 747 mmHg 77%
    21:00 +22°C° 0 mm 5 mps 747 mmHg 77%
    22:00 +21°C° 0 mm 6 mps 747 mmHg 78%
    23:00 +20°C° 0 mm 5 mps 748 mmHg 80%

    30 June, Saturday

    Time Temperature Precipitation Wind Pressure Humidity
    00:00 +19°C° 0 mm 5 mps 748 mmHg 82%
    01:00 +18°C° 0 mm 4 mps 748 mmHg 83%
    02:00 +17°C° 0 mm 4 mps 749 mmHg 84%
    03:00 +15°C° 0 mm 4 mps 749 mmHg 85%
    04:00 +14°C° 0 mm 4 mps 749 mmHg 86%
    05:00 +15°C° 0 mm 4 mps 750 mmHg 82%
    06:00 +16°C° 0 mm 5 mps 750 mmHg 79%
    07:00 +17°C° 0 mm 5 mps 751 mmHg 76%
    08:00 +19°C° 0 mm 5 mps 751 mmHg 68%
    09:00 +20°C° 0 mm 5 mps 751 mmHg 59%
    10:00 +21°C° 0 mm 6 mps 751 mmHg 51%
    11:00 +22°C° 0 mm 6 mps 751 mmHg 48%
    12:00 +23°C° 0 mm 5 mps 751 mmHg 44%
    13:00 +23°C° 0 mm 5 mps 751 mmHg 41%
    14:00 +23°C° 0 mm 5 mps 751 mmHg 43%
    15:00 +23°C° 0 mm 5 mps 751 mmHg 44%
    16:00 +23°C° 0 mm 5 mps 751 mmHg 46%
    17:00 +22°C° 0 mm 5 mps 751 mmHg 52%
    18:00 +21°C° 0 mm 4 mps 751 mmHg 59%
    19:00 +20°C° 0 mm 4 mps 752 mmHg 65%
    20:00 +18°C° 0 mm 4 mps 752 mmHg 67%
    21:00 +17°C° 0 mm 4 mps 752 mmHg 69%
    22:00 +14°C° 0 mm 4 mps 753 mmHg 72%
    23:00 +13°C° 0 mm 3 mps 753 mmHg 75%
    Show more